Location: *
(44.3683°N, 6.6958°E)
Time: 23:17:31
(UTC+00:00)

Cosmos 2082 Rocket - Pass Details

Date: 14 October 2019
Orbit: 832 x 854 km, 71.0° (Epoch: 21 November)

Event Time Altitude Azimuth Distance (km) Brightness Sun altitude
Rises 19:39:29 0° 334° (NNW) 3,433 6.0 -30.5°
Reaches altitude 10° 19:41:57 10° 334° (NNW) 2,492 5.2 -30.9°
Enters shadow 19:46:19 54° 332° (NNW) 1,027 2.7 -31.6°
